St.-Anicet, Quebec

4:47 AM EDT on June 26, 2017 (GMT -0400)
St.-Anicet

Weather History for CWBZ - October, 2011

Change the Weather History Date:

Sunday, October 9, 2011

  Actual Average Record
Temperature  
Mean Temperature 66 °F -  
Max Temperature 81 °F - - ()
Min Temperature 52 °F - - ()
Cooling Degree Days 2    
Growing Degree Days 16 (Base 50)    
Moisture  
Dew Point 53 °F    
Average Humidity 63    
Maximum Humidity 85    
Minimum Humidity 43    
Precipitation  
Precipitation 0.00 in - - ()
Sea Level Pressure  
Sea Level Pressure 30.29 in    
Wind  
Wind Speed 6 mph ()    
Max Wind Speed 13 mph    
Max Gust Speed -    
T = Trace of Precipitation, MM = Missing Value Source: Averaged Metar Reports

Daily Weather History Graph

Daily Weather History Graph

Search for Another Location

Airport or City:

Trip Planner

Search our weather history database for the weather conditions in past years. The results will help you decide how hot, cold, wet, or windy it might be!

Date:

Astronomy

Oct. 09, 2011 Rise Set
Actual Time 7:04 AM EDT 6:23 PM EDT
Civil Twilight 6:35 AM EDT 6:52 PM EDT
Nautical Twilight 6:01 AM EDT 7:26 PM EDT
Astronomical Twilight 5:27 AM EDT 8:00 PM EDT
Moon 5:02 PM EDT (10/9) 4:42 AM EDT (10/9)
Length of Visible Light 12h 17m
Length of Day
11h 18m
Waxing Gibbous, 95% of the Moon is Illuminated
Oct 9
Waxing Gibbous
Oct 11
Full
Oct 19
Last Quarter
Oct 26
New
Nov 2
First Quarter

Hourly Weather History & Observations

Time (EDT) Temp. Heat Index Dew Point Humidity Pressure Visibility Wind Dir Wind Speed Gust Speed Precip Events Conditions
12:00 AM 60.4 °F - 47.8 °F 63% 30.33 in - SW 5.8 mph - N/A   Unknown
1:00 AM 57.9 °F - 47.5 °F 68% 30.32 in - WSW 4.6 mph - N/A   Unknown
2:00 AM 55 °F - 47 °F 67% 30.33 in - WSW 3.5 mph - -  
4:00 AM 53.6 °F - 47.5 °F 80% 30.32 in - WSW 4.6 mph - N/A   Unknown
5:00 AM 54.5 °F - 48.2 °F 79% 30.33 in - SW 5.8 mph - N/A   Unknown
6:00 AM 53.8 °F - 48.4 °F 82% 30.33 in - WSW 4.6 mph - N/A   Unknown
7:00 AM 53.4 °F - 48.9 °F 85% 30.34 in - SW 5.8 mph - N/A   Unknown
8:00 AM 56 °F - 50 °F 74% 30.35 in - WSW 3.5 mph - -  
8:00 AM 55.6 °F - 50.0 °F 81% 30.35 in - WSW 3.5 mph - N/A   Unknown
9:00 AM 62.8 °F - 52.9 °F 70% 30.35 in - WSW 5.8 mph - N/A   Unknown
10:00 AM 68.0 °F - 54.9 °F 63% 30.34 in - WSW 9.2 mph - N/A   Unknown
11:00 AM 73.2 °F - 56.1 °F 55% 30.33 in - WSW 10.4 mph - N/A   Unknown
12:00 PM 76.3 °F - 57.0 °F 51% 30.32 in - West 9.2 mph - N/A   Unknown
1:00 PM 76.8 °F - 56.8 °F 50% 30.29 in - WSW 12.7 mph - N/A   Unknown
2:00 PM 79.3 °F - 57.6 °F 47% 30.27 in - WSW 11.5 mph - N/A   Unknown
4:00 PM 81.0 °F 81.0 °F 57.4 °F 44% 30.22 in - WSW 11.5 mph - N/A   Unknown
5:00 PM 80.1 °F 80.2 °F 55.9 °F 43% 30.20 in - WSW 10.4 mph - N/A   Unknown
6:00 PM 76.3 °F - 56.1 °F 50% 30.21 in - WSW 9.2 mph - N/A   Unknown
7:00 PM 72.9 °F - 56.8 °F 57% 30.22 in - WSW 9.2 mph - N/A   Unknown
8:00 PM 70 °F - 56 °F 53% 30.22 in - SW 6.9 mph - -  
8:00 PM 70.0 °F - 56.5 °F 62% 30.22 in - SW 6.9 mph - N/A   Unknown
9:00 PM 68.7 °F - 55.8 °F 63% 30.22 in - SW 9.2 mph - N/A   Unknown
11:00 PM 65.1 °F - 55.8 °F 72% 30.22 in - WSW 6.9 mph - N/A   Unknown